When you browse on this site, cookies collect data to enhance your experience and personalize the content and advertising you see.
Visit our Privacy Policy to learn more. By continuing to use the site, you agree to this use of cookies and data.
  • In United Kingdom
  • List of Countries
  • For 7 days
  • Water Temperature
  • Weather Map
  • Weather Widgets
  • user-avatar
    Login

    Hourly Weather Belmopan

    Today, 19 October, Saturday

    Time Temperature Precipitation Wind Pressure Humidity
    00:00 +24°C° 0 mm 0 mps 749 mmHg 88%
    01:00 +24°C° 0 mm 0 mps 748 mmHg 89%
    02:00 +23°C° 0 mm 0 mps 748 mmHg 90%
    03:00 +23°C° 0 mm 0 mps 748 mmHg 92%
    04:00 +23°C° 0 mm 0 mps 748 mmHg 91%
    05:00 +23°C° 0 mm 0 mps 748 mmHg 90%
    06:00 +23°C° 0 mm 0 mps 749 mmHg 90%
    07:00 +25°C° 0 mm 0 mps 749 mmHg 78%
    08:00 +28°C° 0 mm 0 mps 750 mmHg 67%
    09:00 +31°C° 0 mm 0 mps 750 mmHg 55%
    10:00 +33°C° 0 mm 0 mps 750 mmHg 50%
    11:00 +36°C° 0 mm 1 mps 749 mmHg 45%
    12:00 +37°C° 0 mm 1 mps 749 mmHg 40%
    13:00 +37°C° 0 mm 1 mps 748 mmHg 41%
    14:00 +38°C° 0 mm 2 mps 747 mmHg 42%
    15:00 +38°C° 0 mm 2 mps 747 mmHg 43%
    16:00 +35°C° 0 mm 2 mps 747 mmHg 55%
    17:00 +32°C° 0 mm 2 mps 747 mmHg 68%
    18:00 +29°C° 0 mm 1 mps 748 mmHg 80%
    19:00 +28°C° 0 mm 1 mps 748 mmHg 84%
    20:00 +27°C° 0 mm 1 mps 749 mmHg 89%
    21:00 +27°C° 0 mm 1 mps 749 mmHg 93%
    22:00 +26°C° 0 mm 1 mps 749 mmHg 94%
    23:00 +26°C° 0 mm 1 mps 749 mmHg 95%

    Tomorrow, 20 October, Sunday

    Time Temperature Precipitation Wind Pressure Humidity
    00:00 +26°C° 0 mm 1 mps 749 mmHg 96%
    01:00 +24°C° 0 mm 0 mps 749 mmHg 97%
    02:00 +24°C° 0 mm 0 mps 749 mmHg 97%
    03:00 +24°C° 0 mm 0 mps 748 mmHg 98%
    04:00 +24°C° 0 mm 0 mps 749 mmHg 97%
    05:00 +24°C° 0 mm 0 mps 749 mmHg 97%
    06:00 +24°C° 0 mm 0 mps 749 mmHg 97%
    07:00 +26°C° 0.1 mm 0 mps 750 mmHg 89%
    08:00 +28°C° 0.1 mm 0 mps 750 mmHg 81%
    09:00 +32°C° 0.1 mm 1 mps 750 mmHg 73%
    10:00 +34°C° 0.2 mm 1 mps 750 mmHg 64%
    11:00 +35°C° 0.2 mm 1 mps 750 mmHg 56%
    12:00 +38°C° 0.2 mm 2 mps 749 mmHg 47%
    13:00 +37°C° 0 mm 2 mps 749 mmHg 49%
    14:00 +37°C° 0 mm 2 mps 748 mmHg 51%
    15:00 +36°C° 0 mm 3 mps 747 mmHg 53%
    16:00 +34°C° 0 mm 2 mps 748 mmHg 65%
    17:00 +31°C° 0 mm 2 mps 748 mmHg 77%
    18:00 +29°C° 0 mm 2 mps 748 mmHg 88%
    19:00 +28°C° 0 mm 1 mps 749 mmHg 92%
    20:00 +27°C° 0 mm 1 mps 749 mmHg 95%
    21:00 +27°C° 0 mm 1 mps 750 mmHg 98%
    22:00 +26°C° 0 mm 1 mps 750 mmHg 98%
    23:00 +26°C° 0 mm 1 mps 750 mmHg 98%

    Day after tomorrow, 21 October, Monday

    Time Temperature Precipitation Wind Pressure Humidity
    00:00 +26°C° 0 mm 1 mps 750 mmHg 98%
    01:00 +26°C° 0 mm 1 mps 750 mmHg 98%
    02:00 +26°C° 0 mm 1 mps 749 mmHg 98%
    03:00 +24°C° 0 mm 0 mps 749 mmHg 99%
    04:00 +24°C° 0 mm 0 mps 749 mmHg 99%
    05:00 +24°C° 0 mm 0 mps 749 mmHg 99%
    06:00 +24°C° 0 mm 0 mps 750 mmHg 99%
    07:00 +28°C° 0 mm 1 mps 750 mmHg 89%
    08:00 +30°C° 0 mm 1 mps 751 mmHg 80%
    09:00 +32°C° 0 mm 2 mps 751 mmHg 70%
    10:00 +34°C° 0.1 mm 2 mps 751 mmHg 64%
    11:00 +35°C° 0.1 mm 2 mps 750 mmHg 59%
    12:00 +36°C° 0.1 mm 2 mps 750 mmHg 53%
    13:00 +36°C° 0.1 mm 2 mps 749 mmHg 55%
    14:00 +35°C° 0.1 mm 3 mps 749 mmHg 57%
    15:00 +35°C° 0.1 mm 3 mps 748 mmHg 58%
    16:00 +32°C° 0 mm 2 mps 748 mmHg 68%
    17:00 +30°C° 0 mm 2 mps 749 mmHg 78%
    18:00 +28°C° 0 mm 2 mps 749 mmHg 88%
    19:00 +27°C° 0 mm 1 mps 750 mmHg 91%
    20:00 +27°C° 0 mm 1 mps 750 mmHg 94%
    21:00 +26°C° 0 mm 1 mps 751 mmHg 97%
    22:00 +26°C° 0.1 mm 1 mps 751 mmHg 97%
    23:00 +26°C° 0.1 mm 1 mps 751 mmHg 98%

    22 October, Tuesday

    Time Temperature Precipitation Wind Pressure Humidity
    00:00 +26°C° 0.1 mm 1 mps 750 mmHg 98%
    01:00 +26°C° 0.1 mm 1 mps 750 mmHg 98%
    02:00 +26°C° 0.1 mm 1 mps 750 mmHg 98%
    03:00 +26°C° 0.1 mm 1 mps 750 mmHg 98%
    04:00 +24°C° 0.3 mm 0 mps 750 mmHg 98%
    05:00 +24°C° 0.3 mm 0 mps 750 mmHg 98%
    06:00 +24°C° 0.3 mm 0 mps 751 mmHg 98%
    07:00 +27°C° 0.6 mm 1 mps 751 mmHg 94%
    08:00 +28°C° 0.6 mm 1 mps 751 mmHg 89%
    09:00 +30°C° 0.6 mm 2 mps 752 mmHg 84%
    10:00 +31°C° 0.6 mm 2 mps 751 mmHg 78%
    11:00 +32°C° 0.6 mm 2 mps 751 mmHg 72%
    12:00 +34°C° 0.6 mm 2 mps 751 mmHg 66%
    13:00 +32°C° 1.5 mm 2 mps 750 mmHg 74%
    14:00 +31°C° 1.5 mm 2 mps 750 mmHg 81%
    15:00 +29°C° 1.5 mm 1 mps 749 mmHg 89%
    16:00 +28°C° 0.7 mm 1 mps 750 mmHg 92%
    17:00 +27°C° 0.7 mm 1 mps 750 mmHg 94%
    18:00 +26°C° 0.7 mm 1 mps 750 mmHg 96%
    19:00 +24°C° 0.3 mm 0 mps 750 mmHg 97%
    20:00 +23°C° 0.3 mm 0 mps 751 mmHg 97%
    21:00 +23°C° 0.3 mm 0 mps 751 mmHg 98%
    22:00 +23°C° 0.2 mm 0 mps 751 mmHg 98%
    23:00 +23°C° 0.2 mm 0 mps 751 mmHg 98%

    23 October, Wednesday

    Time Temperature Precipitation Wind Pressure Humidity
    00:00 +23°C° 0.2 mm 0 mps 750 mmHg 98%
    01:00 +23°C° 0.2 mm 0 mps 750 mmHg 98%
    02:00 +23°C° 0.2 mm 0 mps 750 mmHg 99%
    03:00 +23°C° 0.2 mm 0 mps 750 mmHg 99%
    04:00 +23°C° 0.3 mm 0 mps 750 mmHg 99%
    05:00 +23°C° 0.3 mm 0 mps 750 mmHg 99%
    06:00 +23°C° 0.3 mm 0 mps 750 mmHg 99%
    07:00 +23°C° 0.1 mm 0 mps 751 mmHg 98%
    08:00 +24°C° 0.1 mm 0 mps 751 mmHg 97%
    09:00 +24°C° 0.1 mm 0 mps 752 mmHg 97%
    10:00 +25°C° 0.1 mm 0 mps 751 mmHg 91%
    11:00 +26°C° 0.1 mm 0 mps 751 mmHg 84%
    12:00 +28°C° 0.1 mm 0 mps 750 mmHg 78%
    13:00 +31°C° 0.1 mm 1 mps 750 mmHg 72%
    14:00 +32°C° 0.1 mm 1 mps 749 mmHg 66%
    15:00 +32°C° 0.1 mm 2 mps 748 mmHg 60%
    16:00 +31°C° 0 mm 1 mps 748 mmHg 68%
    17:00 +29°C° 0 mm 1 mps 749 mmHg 76%
    18:00 +27°C° 0 mm 1 mps 749 mmHg 84%
    19:00 +27°C° 0 mm 1 mps 749 mmHg 87%
    20:00 +24°C° 0 mm 0 mps 750 mmHg 91%
    21:00 +23°C° 0 mm 0 mps 750 mmHg 94%
    22:00 +23°C° 0 mm 0 mps 750 mmHg 95%
    23:00 +23°C° 0 mm 0 mps 750 mmHg 96%

    24 October, Thursday

    Time Temperature Precipitation Wind Pressure Humidity
    00:00 +23°C° 0 mm 0 mps 750 mmHg 97%
    01:00 +23°C° 0 mm 0 mps 750 mmHg 98%
    02:00 +23°C° 0 mm 0 mps 749 mmHg 98%
    03:00 +23°C° 0 mm 0 mps 749 mmHg 98%
    04:00 +23°C° 0 mm 0 mps 749 mmHg 98%
    05:00 +23°C° 0 mm 0 mps 749 mmHg 98%
    06:00 +23°C° 0 mm 0 mps 750 mmHg 98%
    07:00 +24°C° 0.2 mm 0 mps 750 mmHg 92%
    08:00 +28°C° 0.2 mm 1 mps 750 mmHg 86%
    09:00 +30°C° 0.2 mm 2 mps 751 mmHg 79%
    10:00 +31°C° 0.2 mm 2 mps 750 mmHg 74%
    11:00 +31°C° 0.2 mm 2 mps 750 mmHg 70%
    12:00 +33°C° 0.2 mm 3 mps 749 mmHg 65%
    13:00 +33°C° 0.1 mm 3 mps 749 mmHg 65%
    14:00 +33°C° 0.1 mm 3 mps 748 mmHg 65%
    15:00 +33°C° 0.1 mm 3 mps 748 mmHg 65%
    16:00 +30°C° 0 mm 2 mps 748 mmHg 74%
    17:00 +29°C° 0 mm 2 mps 748 mmHg 83%
    18:00 +27°C° 0 mm 1 mps 748 mmHg 92%
    19:00 +27°C° 0 mm 1 mps 749 mmHg 94%
    20:00 +26°C° 0 mm 1 mps 749 mmHg 96%
    21:00 +26°C° 0 mm 1 mps 750 mmHg 98%
    22:00 +26°C° 0 mm 1 mps 750 mmHg 98%
    23:00 +25°C° 0 mm 1 mps 749 mmHg 98%
    Show more